Miscellaneous Local Product
Issued by NWS North Platte, NE

Home | Current Version | Previous Version | Text Only | Print | Product List | Glossary On
Versions: 1 2 3 4 5 6 7 8 9 10 11 12 13 14 15 16 17 18 19 20 21 22 23 24 25 26 27 28 29 30 31 32 33 34 35 36 37 38 39 40 41 42 43 44 45 46 47 48 49 50
446
AXUS43 KLBF 221310
MISLBF


WESTERN AND NORTH CENTRAL NEBRASKA HOURLY WEATHER ROUNDUP
NATIONAL WEATHER SERVICE NORTH PLATTE NE
800 AM CDT TUE AUG 22 2017

NOTE: "FAIR" INDICATES FEW OR NO CLOUDS BELOW 12,000 FEET WITH NO
SIGNIFICANT WEATHER AND/OR OBSTRUCTIONS TO VISIBILITY.

NOTE: STATIONS NOT REPORTING VARIABLES SUCH AS SKY/WEATHER OR
PRESSURE ARE PROVIDED BY RAWS AND APRS NETWORKS AND ARE NOT UNDER
NATIONAL WEATHER SERVICE QUALITY CONTROL.

...OBSERVATIONS IN AND NEAR THE EASTERN PANHANDLE OF NEBRASKA...

CITY           SKY/WX    TMP DP  RH WIND       PRES   REMARKS
GORDON         FAIR      46  43  90 CALM      30.28R
CHADRON        CLEAR     47  43  86 SW3       30.27R
ALLIANCE       CLEAR     44  42  93 CALM      30.29R
SIDNEY         CLEAR     50  49  96 SW3       30.32R
$$

...OBSERVATIONS IN NORTHERN NEBRASKA AND FAR SOUTHERN SOUTH DAKOTA...

CITY           SKY/WX    TMP DP  RH WIND       PRES   REMARKS
WINNER         FAIR      55  51  86 SW5       30.23R
VALENTINE      SUNNY     52  46  80 W5        30.25R
THEDFORD       SUNNY     52  49  92 CALM      30.26S
AINSWORTH      SUNNY     52  50  91 CALM      30.25R
O`NEILL        SUNNY     56  54  93 NW5       30.22R
ORD            SUNNY     56  52  86 NW3       30.20R
BROKEN BOW     SUNNY     58  51  78 NW3       30.23R
HALSEY           N/A     52  48  87 CALM        N/A
BUTTE            N/A     54  49  85 CALM        N/A
CHAMBERS         N/A     57  56  96 CALM        N/A
EWING            N/A     56  53  89 N3          N/A
$$

...OBSERVATIONS IN SOUTHWEST NEBRASKA AND FAR NORTHEAST COLORADO...

CITY           SKY/WX    TMP DP  RH WIND       PRES   REMARKS
HOLYOKE        FAIR      55  54  94 CALM      30.30R
IMPERIAL       CLEAR     56  53  90 N7        30.27R
OGALLALA       CLEAR     54  51  92 CALM      30.28R
NORTH PLATTE   SUNNY     53  51  93 E3        30.24R
MCCOOK         SUNNY     61  57  87 CALM      30.24R
LEXINGTON      SUNNY     58  53  84 NE6       30.23R
STAPLETON        N/A     54  50  87 CALM        N/A
GOTHENBURG       N/A     57  49  76 N3          N/A
CALLAWAY         N/A     53  51  92 NE5         N/A
$$

...OBSERVATIONS IN CENTRAL LINCOLN COUNTY AREA...

CITY           SKY/WX    TMP DP  RH WIND       PRES   REMARKS
N.P. AIRPORT   SUNNY     53  51  93 E3        30.24R
N.P. DOWNTOWN    N/A     59  52  76 CALM        N/A
N.P. SOUTHEAST   N/A     54  50  86 CALM        N/A
N.P. HILLCREST   N/A     57  52  83 NE9         N/A
$$

...SOME OBSERVATIONS FROM AROUND THE REGION...

CITY           SKY/WX    TMP DP  RH WIND       PRES   REMARKS
DENVER         MOCLDY    56  53  90 SE8       30.32S
LIMON          CLOUDY    58  56  93 E7        30.36R
ASPEN          CLOUDY    47  38  71 CALM      30.46R
LARAMIE        CLOUDY    51  46  83 S15       30.37S
CASPER         CLEAR     47  37  68 CALM      30.30R
CHEYENNE       CLOUDY    58  52  80 S10       30.35S
SCOTTSBLUFF    CLEAR     52  46  80 CALM      30.30R
GRAND ISLAND   SUNNY     60  58  92 N3        30.20R
OMAHA          MOSUNNY   64  61  90 N10       30.13R
SIOUX FALLS    SUNNY     58  54  86 CALM      30.15R
PIERRE         SUNNY     53  49  86 W6        30.20R
RAPID CITY     CLEAR     52  42  69 CALM      30.25R
BISMARCK       SUNNY     50  45  83 SW3       30.20R
KANSAS CITY    CLOUDY    66  65  96 N8        30.08R
HILL CITY      CLOUDY    65  63  93 N13       30.21R
WICHITA        MOSUNNY   74  72  93 CALM      30.02R
DODGE CITY     CLOUDY    67  64  90 N16G28    30.14R FOG
OKLAHOMA CITY  CLOUDY    75  70  84 S7        30.04R
DALLAS         MOSUNNY   81  73  76 SW9       30.04R
AMARILLO       CLEAR     66  65  96 SW6       30.16R
$$




USA.gov is the U.S. government's official web portal to all federal, state and local government web resources and services.